Burlington, NC

9:07 AM EDT on July 25, 2017 (GMT -0400)
Burlington-Alamance Regional

Weather History for KBUY - May, 2012

Change the Weather History Date:

Thursday, May 10, 2012

  Actual Average Record
Temperature  
Mean Temperature 61 °F -  
Max Temperature 71 °F 74 °F 91 °F (1963)
Min Temperature 51 °F 49 °F 29 °F (1983)
Degree Days  
Heating Degree Days 4    
Growing Degree Days 11 (Base 50)    
Moisture  
Dew Point 49 °F    
Average Humidity 68    
Maximum Humidity 93    
Minimum Humidity 41    
Precipitation  
Precipitation 0.00 in - - ()
Sea Level Pressure  
Sea Level Pressure 29.83 in    
Wind  
Wind Speed 6 mph (WNW)    
Max Wind Speed 13 mph    
Max Gust Speed 22 mph    
Visibility 10 miles    
Events      
Averages and records for this station are not official NWS values.
T = Trace of Precipitation, MM = Missing Value Source: NWS Daily Summary

Daily Weather History Graph

Daily Weather History Graph

Search for Another Location

Airport or City:

Trip Planner

Search our weather history database for the weather conditions in past years. The results will help you decide how hot, cold, wet, or windy it might be!

Date:

Astronomy

May. 10, 2012 Rise Set
Actual Time 6:15 AM EDT 8:13 PM EDT
Civil Twilight 5:47 AM EDT 8:41 PM EDT
Nautical Twilight 5:13 AM EDT 9:15 PM EDT
Astronomical Twilight 4:36 AM EDT 9:52 PM EDT
Moon 12:09 AM EDT (5/10) 10:38 AM EDT (5/10)
Length of Visible Light 14h 53m
Length of Day
13h 57m
Waning Gibbous, 73% of the Moon is Illuminated
May 10
Waning Gibbous
May 12
Last Quarter
May 20
New
May 28
First Quarter
Jun 4
Full

Hourly Weather History & Observations

Time (EDT) Temp. Dew Point Humidity Pressure Visibility Wind Dir Wind Speed Gust Speed Precip Events Conditions
12:54 AM 57.0 °F 54.0 °F 89% 29.73 in 10.0 mi West 6.9 mph - N/A   Clear
1:54 AM 57.0 °F 52.0 °F 83% 29.73 in 10.0 mi West 5.8 mph - N/A   Partly Cloudy
2:54 AM 53.1 °F 51.1 °F 93% 29.72 in 10.0 mi WSW 4.6 mph - N/A   Clear
3:54 AM 53.1 °F 50.0 °F 89% 29.73 in 10.0 mi West 5.8 mph - N/A   Clear
4:54 AM 52.0 °F 48.9 °F 89% 29.74 in 10.0 mi West 5.8 mph - N/A   Clear
5:54 AM 51.1 °F 48.0 °F 89% 29.75 in 10.0 mi WSW 5.8 mph - N/A   Clear
6:54 AM 53.1 °F 48.9 °F 86% 29.78 in 10.0 mi West 5.8 mph - N/A   Clear
7:54 AM 57.0 °F 50.0 °F 77% 29.80 in 10.0 mi West 5.8 mph - N/A   Clear
8:54 AM 61.0 °F 50.0 °F 67% 29.82 in 10.0 mi NW 5.8 mph - N/A   Clear
9:54 AM 63.0 °F 46.9 °F 56% 29.83 in 10.0 mi WNW 10.4 mph 19.6 mph N/A   Clear
10:54 AM 64.9 °F 46.0 °F 50% 29.84 in 10.0 mi NNW 12.7 mph 20.7 mph N/A   Clear
11:54 AM 66.0 °F 46.0 °F 48% 29.85 in 10.0 mi NNW 9.2 mph 20.7 mph N/A   Scattered Clouds
12:54 PM 68.0 °F 46.0 °F 45% 29.84 in 10.0 mi NW 12.7 mph 21.9 mph N/A   Partly Cloudy
1:54 PM 68.0 °F 45.0 °F 43% 29.85 in 10.0 mi Variable 5.8 mph 16.1 mph N/A   Scattered Clouds
2:54 PM 70.0 °F 46.9 °F 44% 29.84 in 10.0 mi WNW 11.5 mph 18.4 mph N/A   Partly Cloudy
4:54 PM 71.1 °F 46.9 °F 42% 29.84 in 10.0 mi WSW 12.7 mph 18.4 mph N/A   Scattered Clouds
5:54 PM 70.0 °F 45.0 °F 41% 29.85 in 10.0 mi West 9.2 mph - N/A   Mostly Cloudy
6:54 PM 70.0 °F 45.0 °F 41% 29.86 in 10.0 mi WNW 5.8 mph - N/A   Scattered Clouds
7:54 PM 64.9 °F 48.0 °F 54% 29.88 in 10.0 mi Calm Calm - N/A   Scattered Clouds
8:54 PM 60.1 °F 50.0 °F 69% 29.90 in 9.0 mi Calm Calm - N/A   Partly Cloudy
9:54 PM 57.0 °F 51.1 °F 81% 29.93 in 10.0 mi Calm Calm - N/A   Clear
10:54 PM 54.0 °F 51.1 °F 90% 29.95 in 10.0 mi Calm Calm - N/A   Clear
11:54 PM 54.0 °F 51.1 °F 90% 29.98 in 10.0 mi Calm Calm - N/A   Clear